Content
SEND FEEDBACK

Daily
Averages
Monthly
Summary
United States of America

BIRMINGHAM, ALABAMA


Home > North America > United States > Alabama
Elevation: 620 feet     Latitude: 33 34N     Longitude: 086 45W

WEATHER
 
SELECT A DAY
Number of Records: 198,769;   Date Range: 1/1/95 - 7/23/14
 
SHARE

PRINT THIS DATA

[ ← Previous Day ]
WEATHER ALMANAC - JANUARY 31, 2013
[ Next Day → ]
[ °C ]   °F
Weather ElementAverageHighLow
Temperature42.1 °F51.1 °F (2:53 pm)33.1 °F (5:53 am)
Dewpoint25.4 °F27 °F (1:53 am)23 °F (1:53 pm)
Humidity53.7 %75 % (3:53 am)33 % (2:53 pm)
Barometer30.17 in30.23 in (9:53 am)30.07 in (1:53 am)
Wind Speed9.5 mph16.1 mph (8:53 am)
Wind Gust19.6 mph (10:53 am)
Weather ElementAverage
Visibility10 mi
Wind DirectionWSW (245.2 °)

Weather ElementTotal
Precipitation---
Heating Degree Days22.9 (Base 65)
Averaged from 23 records on January 31, 2013
WEATHER CONDITIONS BREAKOUT
WIND DIRECTION BREAKOUT
WEATHER BY HOUR - JANUARY 31, 2013
[ °C ]   °F
Local TimeTemperatureDewpointHumidityBarometerVisibilityWind DirectionWind SpeedGust SpeedPrecipitationEventsConditions
1:53 AM36.0 °F27.0 °F70 %30.07 in10.0 miWNW (300°)10.4 mphClear
2:53 AM35.1 °F27.0 °F72 %30.07 in10.0 miWNW (290°)4.6 mphPartly Cloudy
3:53 AM34.0 °F27.0 °F75 %30.09 in10.0 miWSW (250°)5.8 mphClear
4:53 AM34.0 °F27.0 °F75 %30.12 in10.0 miWest (270°)6.9 mphPartly Cloudy
5:53 AM33.1 °F26.1 °F75 %30.12 in10.0 miWest (280°)9.2 mphClear
6:53 AM33.1 °F26.1 °F75 %30.14 in10.0 miWest (270°)6.9 mphClear
7:53 AM34.0 °F27.0 °F75 %30.17 in10.0 miWest (270°)11.5 mphClear
8:53 AM36.0 °F25.0 °F64 %30.19 in10.0 miWest (280°)16.1 mphClear
9:53 AM39.0 °F25.0 °F57 %30.23 in10.0 miVariable6.9 mphClear
10:53 AM42.1 °F25.0 °F51 %30.23 in10.0 miWNW (290°)11.5 mph19.6 mphClear
11:53 AM45.0 °F24.1 °F44 %30.22 in10.0 miWNW (290°)9.2 mphClear
12:53 PM48.0 °F24.1 °F39 %30.19 in10.0 miWNW (290°)11.5 mph19.6 mphClear
1:53 PM50.0 °F23.0 °F35 %30.19 in10.0 miWest (270°)13.8 mphClear
2:53 PM51.1 °F23.0 °F33 %30.18 in10.0 miWest (260°)11.5 mphClear
3:53 PM50.0 °F23.0 °F35 %30.17 in10.0 miWSW (240°)13.8 mph17.3 mphClear
4:53 PM48.9 °F24.1 °F38 %30.17 in10.0 miWSW (250°)12.7 mphClear
5:53 PM48.0 °F24.1 °F39 %30.18 in10.0 miSW (230°)6.9 mphClear
6:53 PM45.0 °F26.1 °F48 %30.19 in10.0 miSSW (200°)6.9 mphClear
7:53 PM45.0 °F26.1 °F48 %30.19 in10.0 miSSW (200°)8.1 mphClear
8:53 PM46.0 °F25.0 °F44 %30.21 in10.0 miSW (220°)8.1 mphClear
9:53 PM45.0 °F26.1 °F48 %30.22 in10.0 miSW (230°)6.9 mphClear
10:53 PM46.0 °F26.1 °F46 %30.22 in10.0 miSW (230°)9.2 mphClear
11:53 PM45.0 °F26.1 °F48 %30.21 in10.0 miSW (230°)10.4 mphClear
Hourly data recorded from KBHM, located miles away from Birmingham, Alabama







STORIES FROM OUR PARTNERS